www.pogodaiklimat.ru

Погода и климат >> Архив погоды >> Россия >> Ханты-Мансийский АО >> Нефтеюганск


ПОГОДА в Нефтеюганске

АРХИВ ПОГОДЫ в Нефтеюганске

Время (UTC), дата Ветер
(напр.,м/с)
 
Видим.   Явления Облачность Т
(С)
Тd
(С)
f
(%)
Тe
(С)
Тes
(С)
Комфортность P
(гПа)
Po
(гПа)
Тmin
(С)
Tmax
(С)
R
(мм)
R24
(мм)
S
(см)
00 14.01 З 5 20 км 10 баллов -15.7 -18.2 81 -25 -25 по сезону 1014.7 1009.3
03 14.01 З 3 4000 м слабый ливневой снег 10/10 600 м
[Cb cap]
-14.4 -16.7 83 -21 -21 по сезону 1014.1 1009.1 -16.3 1 28
06 14.01 З 2 50 км {ливн. осадки} 10/3 600 м
[Cb cap As op]
-14.1 -16.1 85 -19 -19 тепло 1015.5 1010.5
09 14.01 З 4 50 км 8/0
[Ac trans Ci fib]
-14.0 -16.2 83 -22 -21 по сезону 1016.4 1011.4
12 14.01 СЗ 1 20 км 5/0
[Ac trans]
-17.8 -19.9 84 -21 -21 по сезону 1017.8 1012.7
15 14.01 Ю 1 10 км слабый ливневой снег 10/5 600 м
[Cb cap As op]
-18.5 -20.7 83 -21 -21 по сезону 1017.4 1012.3 -14.0 0.0
18 14.01 Ю 2 20 км {ливн. осадки} 10/0
[Cs]
-17.2 -19.3 84 -23 -23 по сезону 1015.7 1010.6
21 14.01 Ю 2 10 км слабый снег 10/0
[As op]
-15.9 -18.0 84 -21 -21 по сезону 1013.8 1008.7
00 15.01 ЮЗ 3 20 км {снег} 10/0
[As op]
-12.4 -14.2 86 -18 -18 тепло 1011.5 1006.6
03 15.01 З 4 4000 м слабый снег 10/0
[As op]
-10.5 -12.1 88 -18 -18 тепло 1009.2 1004.3 -19.6 1 29
06 15.01 З 5 4000 м слабый снег {дождь} [диам. гололёда 1 мм] 10/0 300 м
[As op]
-5.5 -6.6 92 -13 -13 тепло 1007.8 1003.0
09 15.01 З 5 4000 м слабый ливневой снег [диам. гололёда 1 мм] 10/8 300 м
[Cb cap As op]
-1.0 -2.0 93 -7 -7 тепло 1007.9 1003.1
12 15.01 СЗ 7-10
{10}
20 км {ливн. осадки, снег} [диам. гололёда 0 мм] 9/6 300 м
[Cb cap Ac trans]
+0.7 -1.7 84 -6 -6 тепло 1009.6 1004.9
15 15.01 СЗ 7-10
{11}
20 км в посл. час ливневой снег 10/6 300 м
[Cb cap Ac und]
+0.5 -2.0 83 -6 -6 тепло 1009.9 1005.2 +0.9 0.7
18 15.01 СЗ 7-11
{11}
20 км {ливн. осадки} 10/10 300 м
[Sc]
-0.3 -3.2 81 -7 -7 тепло 1011.1 1006.4
21 15.01 СЗ 6
{11}
20 км 10/10 300 м
[St]
-1.8 -4.7 81 -9 -9 тепло 1011.4 1006.6
00 16.01 З 4
{10}
20 км 10/10 300 м
[St]
-2.9 -5.6 82 -9 -9 тепло 1011.9 1007.2
03 16.01 З 6 20 км 10/10 300 м
[Sc]
-5.9 -7.7 87 -14 -14 тепло 1011.7 1006.9 -6.0 30
06 16.01 З 5
{10}
50 км 9/6 600 м
[Sc Ac trans]
-8.0 -10.2 84 -16 -15 тепло 1012.3 1007.4 -8.0
09 16.01 СЗ 5 50 км 10/0
[Ac und]
-6.9 -9.6 81 -14 -14 тепло 1012.5 1007.7
12 16.01 СЗ 5 20 км 10/0
[Ac und]
-5.8 -9.0 78 -13 -13 тепло 1013.8 1009.0
15 16.01 СЗ 5 20 км 10/6 300 м
[St Ac und]
-5.6 -8.7 79 -13 -13 тепло 1014.5 1009.7 -5.6
18 16.01 СЗ 5 20 км 10/10 300 м
[St]
-5.9 -9.0 79 -13 -13 тепло 1015.5 1010.6
21 16.01 СЗ 4 10 км слабый снег 10/6 300 м
[Frnb As op]
-6.6 -9.5 80 -13 -13 тепло 1016.7 1011.8
00 17.01 З 4 20 км {снег} 10/6 300 м
[Frnb As op]
-8.2 -10.4 84 -15 -15 тепло 1017.7 1012.8
03 17.01 З 4 10 км слабый ливневой снег 10/6 300 м
[Cb cap As op]
-9.7 -11.7 85 -17 -17 тепло 1018.4 1013.5 -9.7 0.0 30
06 17.01 З 5 10 км слабый ливневой снег 10 баллов -10.4 -12.6 84 -18 -18 тепло 1021.3 1016.0 -10.4
09 17.01 З 4 50 км в посл. час ливневой снег 10/5 600 м
[Cb cap Ac und]
-10.5 -13.0 82 -18 -18 тепло 1021.1 1016.1
12 17.01 З 3 20 км в посл. час ливневой снег 10/5 600 м
[Cb cap Ac und]
-10.9 -13.2 83 -17 -17 тепло 1023.1 1018.1
15 17.01 З 3 20 км {ливн. осадки} 10/6 600 м
[Cb cap Ac und]
-10.6 -12.8 84 -17 -17 тепло 1024.2 1019.3 -9.7 0.0
18 17.01 штиль 0 20 км в посл. час ливневой снег 10/6 300 м
[Cb cap Ac und]
-10.8 -12.8 85 -11 -11 тепло 1026.0 1021.0
21 17.01 В 3 20 км {ливн. осадки} 10/5 300 м
[Cb cap As op]
-12.7 -15.2 82 -19 -19 по сезону 1027.6 1022.5
00 18.01 В 5 10 км слабый ливневой снег 10 баллов -14.2 -16.7 81 -23 -23 по сезону 1030.7 1025.3
03 18.01 В 5
{7}
20 км {ливн. осадки} 10/0
[As op]
-15.5 -18.2 80 -24 -24 по сезону 1030.6 1025.5 -15.5 0.0 30
06 18.01 В 4 4000 м слабый ливневой снег 10 баллов -16.9 -19.8 78 -25 -25 по сезону 1034.8 1029.3 -16.9
09 18.01 В 3 10 км слабый ливневой снег 10/6 600 м
[Cb cap Ac und]
-17.6 -21.0 75 -25 -25 по сезону 1034.4 1029.2
12 18.01 В 3 20 км 10 баллов -19.8 -23.1 75 -27 -27 по сезону 1037.6 1032.0
15 18.01 В 2
{7}
20 км в посл. час ливневой снег 3/3 600 м
[Cb cap]
-25.3 -29.1 70 -32 -32 опасность
обморожения
1037.2 1031.8 -15.3 0.2
18 18.01 СВ 2 10 км слабый ливневой снег 10/6 600 м
[Cb cap Ac und]
-24.5 -28.6 69 -31 -31 опасность
обморожения
1038.3 1033.0
21 18.01 В 3 10 км слабый ливневой снег 10/6 600 м
[Cb cap Ac und]
-25.7 -29.7 69 -34 -34 опасность
обморожения
1039.3 1033.9
00 19.01 В 2 10 км слабый ливневой снег 10 баллов -25.9 -29.9 69 -33 -33 опасность
обморожения
1041.7 1036.0
03 19.01 В 3
{5}
10 км слабый снег {ливн. осадки} 10/0
[As op]
-26.7 -31.0 67 -36 -36 опасность
обморожения
1041.4 1036.0 -26.7 0.3 31
06 19.01 В 3 50 км 9 баллов -26.2 -31.5 61 -35 -35 опасность
обморожения
1044.5 1038.7 -26.8
09 19.01 В 4 50 км 9/0
[Ac trans]
-27.3 -32.8 59 -38 -38 опасность
обморожения
1044.4 1039.0
12 19.01 В 3 20 км 10/0
[Ac trans Ci fib]
-26.6 -31.4 64 -36 -36 опасность
обморожения
1045.8 1040.4
15 19.01 В 4
{7}
20 км 9 баллов -26.3 -31.2 63 -37 -37 опасность
обморожения
1048.5 1042.7 -25.5 0.0
18 19.01 В 4 20 км 9/9 600 м
[Sc]
-28.0 -32.6 65 -39 -39 опасность
обморожения
1048.4 1042.9
21 19.01 В 4 20 км 9/9 600 м
[Sc]
-32.3 -36.8 64 -44 -44 опасность
обморожения
1049.7 1044.2
00 20.01 В 2 20 км ясно -34.6 -39.0 64 -43 -43 опасность
обморожения
1051.0 1045.4
03 20.01 В 3
{7}
20 км ясно -36.6 -41.1 63 -48 -48 опасность
обморожения
1054.1 1048.0 -36.6
06 20.01 В 3 50 км ясно -36.6 -41.8 58 -48 -47 опасность
обморожения
1053.6 1047.9 -37.5
09 20.01 В 2 50 км ясно -33.8 -39.5 56 -42 -42 опасность
обморожения
1054.9 1049.3
12 20.01 В 2 20 км ясно -36.2 -41.0 61 -45 -45 опасность
обморожения
1055.9 1050.1
15 20.01 В 3
{5}
20 км ясно -36.8 -41.2 63 -48 -48 опасность
обморожения
1058.1 1052.0 -33.6
18 20.01 В 3 20 км ясно -37.0 -41.4 63 -48 -48 опасность
обморожения
1057.7 1052.0
21 20.01 В 3 20 км ясно -38.2 -42.7 62 -49 -49 опасность
обморожения
1059.4 1053.6

 

Местоположение метеостанции Нефтеюганск (Ханты-Мансийский АО, Россия): широта 61.07 долгота 72.62 высота над уровнем моря 40 м.

В архиве по умолчанию представлена погода в Нефтеюганске за последнюю неделю. Архивные данные за месяц целиком и за предыдущие месяцы, начиная с января 2011 года, Вы можете получить, выбрав интересующий диапазон дат из раскрывающегося списка и нажав кнопку "Ввод!".

Внимание! Время в таблицах - всемирное. Для получения местного времени необходимо прибавить поправку, которая в Нефтеюганске равна 5 ч.

Смотрите также архив погоды в соседних городах и на ближайших метеорологических станциях:

Погода в Сургуте (Ханты-Мансийский АО, Россия) (52 км)
Погода в Сытомино (Ханты-Мансийский АО, Россия) (75 км)
Погода в Угуте (Ханты-Мансийский АО, Россия) (99 км)
Погода в Салыме (Ханты-Мансийский АО, Россия) (127 км)
Погода в Когалыме (Ханты-Мансийский АО, Россия) (164 км)
Погода в Таурово (Ханты-Мансийский АО, Россия) (170 км)
Погода в Ханты-Мансийске (Ханты-Мансийский АО, Россия) (188 км)
Погода в Нижнесортымском (Ханты-Мансийский АО, Россия) (193 км)
Погода в Алтае (Ханты-Мансийский АО, Россия) (215 км)
Погода в Нижневартовске (Ханты-Мансийский АО, Россия) (215 км)

Пояснения к столбцам:

Ветер - указаны скорость ветра в м/с - средняя за 10 мин, порывы в срок и между сроками (в фигурных скобках) и направление, откуда дует ветер: С - северный, СВ - северо-восточный, В - восточный, ЮВ - юго-восточный, Ю - южный, ЮЗ - юго-западный, З - западный, СЗ - северо-западный.
Видимость - горизонтальная дальность видимости в метрах или километрах. При видимости от 1 до 10 км при отсутствии осадков обычно наблюдается дымка, при ухудшении видимости до 1 км и менее - туман. В сухую погоду видимость может ухудшаться дымом, пылью или мглою.
Явления - указаны атмосферные явления, наблюдавшиеся в срок или в последний час перед сроком; фигурными скобками обозначены явления, наблюдавшиеся между сроками (за 1-3 часа до срока); квадратными скобками обозначены град или гололедные отложения с указанием их диаметра в мм.
Облачность - указаны через наклонную черту общая и нижняя облачность в баллах и высота нижней границы облаков в метрах; квадратными скобками обозначены формы облаков: Ci - перистые, Cs - перисто-слоистые, Cc - перисто-кучевые, Ac - высококучевые, As - высокослоистые, Sc - слоисто-кучевые, Ns - слоисто-дождевые, Cu - кучевые, Cb - кучево-дождевые. Подробнее классификацию облаков см. в Атласе облаков (PDF).
T - Температура воздуха - температура, измеренная на высоте 2 м над землей.
Td - Температура точки росы - температура, при понижении до которой содержащийся в воздухе водяной пар достигнет насыщения.
f - Относительная влажность воздуха - влажноcть воздуха, измеренная на высоте 2 м над землей.
Te - Эффективная температура - температура, которую ощущает одетый по сезону человек в тени. Характеристика душности погоды. При расчете учитывается влияние влажности воздуха и скорости ветра на теплоощущения человека.
Tes - Эффективная температура на солнце - температура, которую ощущает человек, с поправкой на солнечный нагрев. Характеристика знойности погоды. Зависит от высоты солнца над горизонтом, облачности и скорости ветра. Ночью, в пасмурную погоду, а также при ветре 12 м/с и более поправка равна нулю.
P - Атмосферное давление - приведенное к уровню моря атмосферное давление.
Po - Атмосферное давление - измеренное на уровне метеостанции атмосферное давление.
Tmin - Минимальная температура - минимум температуры воздуха на высоте 2 м над землей.
Tmax - Максимальная температура - максимум температуры воздуха на высоте 2 м над землей.
R - Количество осадков - Количество выпавших осадков за период времени, мм. При наведении курсора мыши на число - период времени, за который выпало указанное количество осадков.
R24 - Количество осадков - Количество выпавших осадков за 24 часа, мм.
S - Снежный покров - Высота снежного покрова, см. При наведении курсора мыши на число - состояние снежного покрова и степень покрытия местности в баллах.